Location: Ermatingen
(47.6706°N, 9.0857°E)
Time: 01:21:34
(UTC+00:00)

Cosmos 1428 Rocket - Pass Details

Date: 30 November 2021
Orbit: 949 x 987 km, 82.9° (Epoch: 17 January)

Event Time Altitude Azimuth Distance (km) Brightness Sun altitude
Rises 17:04:32 0° 352° (N) 3,633 7.4 -14.6°
Reaches altitude 10° 17:07:03 10° 355° (N) 2,685 6.7 -15.0°
Maximum altitude 17:13:10 68° 79° (E) 1,023 4.4 -16.0°
Drops below altitude 10° 17:19:16 10° 162° (SSE) 2,681 6.8 -17.0°
Sets 17:21:47 0° 165° (SSE) 3,628 7.5 -17.4°
